Location: *
(33.8649°S, 62.1526°E)
Time: 07:39:17
(UTC+00:00)

Envisat - Visible Passes

Search period start: 23 April 2021 00:00
Search period end: 03 May 2021 00:00
Orbit: 764 x 766 km, 98.1° (Epoch: 22 April)

Date Brightness Start Highest point End Pass type
(mag) Time Alt. Az. Time Alt. Az. Time Alt. Az.
23 Apr 3.3 00:25:52 10° NNE 00:30:55 67° ESE 00:36:02 10° S visible
23 Apr 5.3 14:18:23 10° SSW 14:22:32 25° WSW 14:26:39 10° WNW visible
23 Apr 4.9 23:50:00 10° NE 23:54:18 28° ESE 23:58:39 10° SSE visible
24 Apr 3.9 01:28:52 10° NNW 01:33:11 28° W 01:37:34 10° SW visible
24 Apr 3.8 13:40:54 10° S 13:45:58 59° WSW 13:50:57 10° NNW visible
24 Apr 5.9 23:15:50 10° E 23:17:54 12° ESE 23:19:58 10° SE visible
25 Apr 2.9 00:51:12 10° N 00:56:16 67° W 01:01:24 10° SSW visible
25 Apr 5.9 14:45:00 10° SSW 14:47:38 14° WSW 14:50:16 10° W visible
26 Apr 3.8 00:14:35 10° NNE 00:19:31 51° ESE 00:24:29 10° S visible
26 Apr 4.6 01:55:54 10° NW 01:58:46 15° W 02:01:39 10° WSW visible
26 Apr 4.9 14:06:39 10° S 14:11:11 32° WSW 14:15:41 10° NW visible
26 Apr 5.2 23:39:05 10° ENE 23:42:57 22° ESE 23:46:51 10° SSE visible
27 Apr 3.5 01:17:02 10° NNW 01:21:42 36° W 01:26:25 10° SSW visible
28 Apr 2.9 00:39:43 10° NNE 00:44:49 87° WNW 00:49:59 10° SSW visible
28 Apr 5.7 14:32:53 10° SSW 14:36:19 18° WSW 14:39:44 10° WNW visible
29 Apr 4.3 00:03:24 10° NE 00:08:08 39° ESE 00:12:53 10° S visible
29 Apr 4.3 01:43:35 10° NW 01:47:14 20° W 01:50:54 10° SW visible
29 Apr 4.4 13:55:01 10° S 13:59:49 41° WSW 14:04:34 10° NW visible
29 Apr 5.6 23:28:20 10° ENE 23:31:38 18° ESE 23:34:56 10° SSE visible
30 Apr 3.2 01:05:19 10° N 01:10:13 47° W 01:15:10 10° SSW visible
01 May 3.2 00:28:18 10° NNE 00:33:23 73° ESE 00:38:32 10° S visible
01 May 5.4 14:20:59 10° SSW 14:24:59 23° WSW 14:28:56 10° WNW visible
01 May 4.7 23:52:19 10° NE 23:56:45 31° ESE 00:01:13 10° S visible
02 May 4.0 01:31:31 10° NNW 01:35:42 25° W 01:39:56 10° SW visible
02 May 3.9 13:43:25 10° S 13:48:25 53° WSW 13:53:22 10° NNW visible
02 May 5.8 23:17:52 10° E 23:20:19 14° ESE 23:22:47 10° SE visible
